| time (UTC) | temp F | wind direction | speed MPH | gust MPH | rain 1hr in | rain 24hr in | rain mn in | humidity % | barometer mb |
| 20260508053749 | 33 | 235 | 1.0 | 2.0 | 0.00 | 0.00 | 0.00 | 10 | 1012.0 |
| 20260508053634 | 33 | 230 | 1.0 | 2.0 | 0.00 | 0.00 | 0.00 | 10 | 1012.0 |
| 20260508053607 | 33 | 230 | 1.0 | 2.0 | 0.00 | 0.00 | 0.00 | 10 | 1012.0 |
| 20260508053248 | 33 | 32 | 0.0 | 2.0 | 0.00 | 0.00 | 0.00 | 11 | 1011.9 |
| 20260508052748 | 32 | 78 | 0.0 | 2.0 | 0.00 | 0.00 | 0.00 | 13 | 1011.8 |
| 20260508052703 | 32 | 78 | 0.0 | 2.0 | 0.00 | 0.00 | 0.00 | 13 | 1011.8 |
| 20260508052248 | 32 | 135 | 0.0 | 2.0 | 0.00 | 0.00 | 0.00 | 18 | 1012.0 |
| 20260508051803 | 31 | 135 | 0.0 | 2.0 | 0.00 | 0.00 | 0.00 | 18 | 1011.9 |
| 20260508051748 | 31 | 135 | 0.0 | 1.0 | 0.00 | 0.00 | 0.00 | 18 | 1011.8 |
| 20260508051508 | 31 | 0 | 0.0 | 0.0 | 0.00 | 0.00 | 0.00 | 19 | 1011.9 |
| 20260508051008 | 31 | 0 | 0.0 | 0.0 | 0.00 | 0.00 | 0.00 | 20 | 1011.9 |
| 20260508050903 | 31 | 0 | 0.0 | 0.0 | 0.00 | 0.00 | 0.00 | 20 | 1011.9 |
| 20260508050508 | 30 | 0 | 0.0 | 0.0 | 0.00 | 0.00 | 0.00 | 22 | 1012.0 |
| 20260508050008 | 30 | 0 | 0.0 | 0.0 | 0.00 | 0.00 | 0.00 | 22 | 1011.8 |
| 20260508050003 | 30 | 0 | 0.0 | 0.0 | 0.00 | 0.00 | 0.00 | 22 | 1011.8 |
| 20260508045634 | 29 | 0 | 0.0 | 0.0 | 0.00 | 0.00 | 0.00 | 22 | 1011.8 |
| 20260508045508 | 29 | 0 | 0.0 | 0.0 | 0.00 | 0.00 | 0.00 | 22 | 1011.8 |
| 20260508045403 | 29 | 0 | 0.0 | 0.0 | 0.00 | 0.00 | 0.00 | 22 | 1011.8 |
| 20260508045008 | 29 | 0 | 0.0 | 0.0 | 0.00 | 0.00 | 0.00 | 23 | 1011.8 |
| 20260508044508 | 29 | 0 | 0.0 | 0.0 | 0.00 | 0.00 | 0.00 | 24 | 1011.8 |
| 20260508044503 | 29 | 0 | 0.0 | 0.0 | 0.00 | 0.00 | 0.00 | 24 | 1011.8 |
| 20260508044008 | 28 | 0 | 0.0 | 0.0 | 0.00 | 0.00 | 0.00 | 24 | 1011.8 |
| 20260508043634 | 28 | 0 | 0.0 | 0.0 | 0.00 | 0.00 | 0.00 | 25 | 1011.8 |
| 20260508043603 | 28 | 0 | 0.0 | 0.0 | 0.00 | 0.00 | 0.00 | 25 | 1011.8 |
| 20260508043508 | 28 | 0 | 0.0 | 0.0 | 0.00 | 0.00 | 0.00 | 24 | 1011.8 |
| 20260508043008 | 28 | 0 | 0.0 | 0.0 | 0.00 | 0.00 | 0.00 | 25 | 1011.6 |
| 20260508042703 | 28 | 0 | 0.0 | 0.0 | 0.00 | 0.00 | 0.00 | 25 | 1011.6 |
| 20260508042508 | 27 | 0 | 0.0 | 0.0 | 0.00 | 0.00 | 0.00 | 25 | 1011.7 |
| 20260508042008 | 27 | 0 | 0.0 | 0.0 | 0.00 | 0.00 | 0.00 | 26 | 1011.5 |
| 20260508041803 | 27 | 0 | 0.0 | 0.0 | 0.00 | 0.00 | 0.00 | 26 | 1011.6 |
| 20260508041634 | 27 | 0 | 0.0 | 0.0 | 0.00 | 0.00 | 0.00 | 26 | 1011.7 |
| 20260508041508 | 26 | 0 | 0.0 | 0.0 | 0.00 | 0.00 | 0.00 | 26 | 1011.5 |
| 20260508041009 | 26 | 0 | 0.0 | 0.0 | 0.00 | 0.00 | 0.00 | 27 | 1011.5 |
| 20260508040903 | 26 | 0 | 0.0 | 0.0 | 0.00 | 0.00 | 0.00 | 26 | 1011.6 |
| 20260508040508 | 25 | 0 | 0.0 | 0.0 | 0.00 | 0.00 | 0.00 | 25 | 1011.4 |
| 20260508040008 | 25 | 0 | 0.0 | 0.0 | 0.00 | 0.00 | 0.00 | 25 | 1011.4 |
| 20260508040003 | 25 | 0 | 0.0 | 0.0 | 0.00 | 0.00 | 0.00 | 25 | 1011.4 |
| 20260508035634 | 25 | 0 | 0.0 | 0.0 | 0.00 | 0.00 | 0.00 | 25 | 1011.5 |
| 20260508035508 | 25 | 0 | 0.0 | 0.0 | 0.00 | 0.00 | 0.00 | 25 | 1011.4 |
| 20260508035403 | 25 | 0 | 0.0 | 0.0 | 0.00 | 0.00 | 0.00 | 25 | 1011.4 |
| 20260508035008 | 25 | 0 | 0.0 | 0.0 | 0.00 | 0.00 | 0.00 | 25 | 1011.4 |
| 20260508034508 | 24 | 0 | 0.0 | 0.0 | 0.00 | 0.00 | 0.00 | 25 | 1011.5 |
| 20260508034503 | 24 | 0 | 0.0 | 0.0 | 0.00 | 0.00 | 0.00 | 25 | 1011.5 |
| 20260508034008 | 24 | 0 | 0.0 | 0.0 | 0.00 | 0.00 | 0.00 | 24 | 1011.4 |
| 20260508033634 | 24 | 0 | 0.0 | 0.0 | 0.00 | 0.00 | 0.00 | 24 | 1011.3 |
| 20260508033603 | 24 | 0 | 0.0 | 0.0 | 0.00 | 0.00 | 0.00 | 24 | 1011.3 |
| 20260508033508 | 24 | 0 | 0.0 | 0.0 | 0.00 | 0.00 | 0.00 | 24 | 1011.4 |
| 20260508033008 | 24 | 0 | 0.0 | 0.0 | 0.00 | 0.00 | 0.00 | 23 | 1011.4 |
| 20260508032703 | 24 | 0 | 0.0 | 0.0 | 0.00 | 0.00 | 0.00 | 23 | 1011.3 |
| 20260508032508 | 24 | 0 | 0.0 | 0.0 | 0.00 | 0.00 | 0.00 | 22 | 1011.3 |
| 20260508032008 | 23 | 0 | 0.0 | 0.0 | 0.00 | 0.00 | 0.00 | 22 | 1011.3 |
| 20260508031803 | 23 | 0 | 0.0 | 0.0 | 0.00 | 0.00 | 0.00 | 22 | 1011.4 |
| 20260508031634 | 23 | 0 | 0.0 | 0.0 | 0.00 | 0.00 | 0.00 | 22 | 1011.1 |
| 20260508031508 | 23 | 0 | 0.0 | 0.0 | 0.00 | 0.00 | 0.00 | 22 | 1011.4 |
| 20260508031008 | 23 | 0 | 0.0 | 0.0 | 0.00 | 0.00 | 0.00 | 22 | 1011.2 |
| 20260508030903 | 24 | 0 | 0.0 | 0.0 | 0.00 | 0.00 | 0.00 | 22 | 1011.2 |
| 20260508030508 | 24 | 0 | 0.0 | 0.0 | 0.00 | 0.00 | 0.00 | 22 | 1011.1 |
| 20260508030008 | 24 | 0 | 0.0 | 0.0 | 0.00 | 0.00 | 0.00 | 22 | 1011.2 |
| 20260508030003 | 24 | 0 | 0.0 | 0.0 | 0.00 | 0.00 | 0.00 | 22 | 1011.2 |
| 20260508025634 | 23 | 135 | 0.0 | 1.0 | 0.00 | 0.00 | 0.00 | 22 | 1011.0 |
| 20260508025508 | 23 | 135 | 0.0 | 1.0 | 0.00 | 0.00 | 0.00 | 22 | 1011.1 |
| 20260508025403 | 23 | 135 | 0.0 | 1.0 | 0.00 | 0.00 | 0.00 | 22 | 1011.1 |
| 20260508025008 | 23 | 135 | 0.0 | 1.0 | 0.00 | 0.00 | 0.00 | 21 | 1011.0 |
| 20260508024508 | 23 | 135 | 0.0 | 2.0 | 0.00 | 0.00 | 0.00 | 20 | 1011.0 |
| 20260508024503 | 23 | 135 | 0.0 | 2.0 | 0.00 | 0.00 | 0.00 | 20 | 1011.0 |
| 20260508024008 | 23 | 135 | 0.0 | 2.0 | 0.00 | 0.00 | 0.00 | 19 | 1011.0 |
| 20260508023636 | 23 | 0 | 0.0 | 0.0 | 0.00 | 0.00 | 0.00 | 19 | 1011.0 |
| 20260508023603 | 23 | 0 | 0.0 | 0.0 | 0.00 | 0.00 | 0.00 | 19 | 1011.0 |
| 20260508023509 | 23 | 0 | 0.0 | 0.0 | 0.00 | 0.00 | 0.00 | 19 | 1011.0 |
| 20260508023008 | 23 | 0 | 0.0 | 0.0 | 0.00 | 0.00 | 0.00 | 19 | 1011.0 |
| 20260508022703 | 23 | 0 | 0.0 | 0.0 | 0.00 | 0.00 | 0.00 | 19 | 1011.0 |
| 20260508022508 | 23 | 0 | 0.0 | 0.0 | 0.00 | 0.00 | 0.00 | 19 | 1010.9 |
| 20260508022008 | 23 | 0 | 0.0 | 0.0 | 0.00 | 0.00 | 0.00 | 19 | 1010.9 |
| 20260508021803 | 23 | 0 | 0.0 | 0.0 | 0.00 | 0.00 | 0.00 | 19 | 1010.8 |
| 20260508021634 | 23 | 0 | 0.0 | 0.0 | 0.00 | 0.00 | 0.00 | 18 | 1010.8 |
| 20260508021508 | 23 | 0 | 0.0 | 0.0 | 0.00 | 0.00 | 0.00 | 18 | 1010.9 |
| 20260508021008 | 23 | 0 | 0.0 | 0.0 | 0.00 | 0.00 | 0.00 | 17 | 1010.9 |
| 20260508020903 | 23 | 0 | 0.0 | 0.0 | 0.00 | 0.00 | 0.00 | 17 | 1010.7 |
| 20260508020508 | 23 | 0 | 0.0 | 0.0 | 0.00 | 0.00 | 0.00 | 17 | 1010.8 |
| 20260508020008 | 23 | 0 | 0.0 | 0.0 | 0.00 | 0.00 | 0.00 | 17 | 1010.8 |
| 20260508020003 | 23 | 0 | 0.0 | 0.0 | 0.00 | 0.00 | 0.00 | 17 | 1010.8 |
| 20260508015634 | 23 | 0 | 0.0 | 0.0 | 0.00 | 0.00 | 0.00 | 16 | 1010.7 |
| 20260508015508 | 23 | 0 | 0.0 | 0.0 | 0.00 | 0.00 | 0.00 | 16 | 1010.8 |
| 20260508015403 | 23 | 0 | 0.0 | 0.0 | 0.00 | 0.00 | 0.00 | 16 | 1010.7 |
| 20260508015008 | 24 | 180 | 0.0 | 2.0 | 0.00 | 0.00 | 0.00 | 17 | 1010.7 |
| 20260508014508 | 24 | 180 | 0.0 | 2.0 | 0.00 | 0.00 | 0.00 | 16 | 1010.5 |
| 20260508014503 | 24 | 180 | 0.0 | 2.0 | 0.00 | 0.00 | 0.00 | 16 | 1010.5 |
| 20260508014008 | 23 | 180 | 0.0 | 2.0 | 0.00 | 0.00 | 0.00 | 16 | 1010.5 |
| 20260508013634 | 23 | 180 | 1.0 | 2.0 | 0.00 | 0.00 | 0.00 | 15 | 1010.5 |
| 20260508013603 | 23 | 180 | 1.0 | 2.0 | 0.00 | 0.00 | 0.00 | 15 | 1010.5 |
| 20260508013508 | 23 | 180 | 0.0 | 2.0 | 0.00 | 0.00 | 0.00 | 15 | 1010.4 |
| 20260508013008 | 23 | 180 | 0.0 | 2.0 | 0.00 | 0.00 | 0.00 | 14 | 1010.4 |
| 20260508012703 | 23 | 180 | 1.0 | 2.0 | 0.00 | 0.00 | 0.00 | 13 | 1010.4 |
| 20260508012508 | 23 | 90 | 0.0 | 2.0 | 0.00 | 0.00 | 0.00 | 13 | 1010.4 |
| 20260508012008 | 24 | 90 | 0.0 | 2.0 | 0.00 | 0.00 | 0.00 | 14 | 1010.5 |
| 20260508011803 | 24 | 90 | 0.0 | 2.0 | 0.00 | 0.00 | 0.00 | 14 | 1010.4 |
| 20260508011634 | 24 | 98 | 0.0 | 2.0 | 0.00 | 0.00 | 0.00 | 14 | 1010.3 |
| 20260508011508 | 24 | 103 | 0.0 | 2.0 | 0.00 | 0.00 | 0.00 | 14 | 1010.4 |
| 20260508011008 | 24 | 128 | 0.0 | 2.0 | 0.00 | 0.00 | 0.00 | 13 | 1010.3 |
| 20260508010903 | 24 | 129 | 0.0 | 2.0 | 0.00 | 0.00 | 0.00 | 13 | 1010.3 |
| 20260508010508 | 25 | 135 | 0.0 | 2.0 | 0.00 | 0.00 | 0.00 | 14 | 1010.3 |
| 20260508010008 | 25 | 141 | 0.0 | 2.0 | 0.00 | 0.00 | 0.00 | 14 | 1010.3 |
| 20260508010003 | 25 | 141 | 0.0 | 2.0 | 0.00 | 0.00 | 0.00 | 14 | 1010.3 |
| 20260508005634 | 25 | 161 | 1.0 | 2.0 | 0.00 | 0.00 | 0.00 | 13 | 1010.2 |
| 20260508005509 | 25 | 166 | 1.0 | 2.0 | 0.00 | 0.00 | 0.00 | 13 | 1010.2 |
| 20260508005403 | 25 | 171 | 1.0 | 2.0 | 0.00 | 0.00 | 0.00 | 13 | 1010.1 |
| 20260508005009 | 25 | 175 | 0.0 | 2.0 | 0.00 | 0.00 | 0.00 | 12 | 1010.2 |
| 20260508004509 | 24 | 159 | 2.0 | 2.0 | 0.00 | 0.00 | 0.00 | 10 | 1010.1 |
| 20260508004503 | 24 | 159 | 2.0 | 2.0 | 0.00 | 0.00 | 0.00 | 10 | 1010.1 |
| 20260508004009 | 24 | 135 | 0.0 | 2.0 | 0.00 | 0.00 | 0.00 | 10 | 1010.1 |
| 20260508003635 | 25 | 135 | 0.0 | 1.0 | 0.00 | 0.00 | 0.00 | 10 | 1010.0 |
| 20260508003603 | 25 | 135 | 0.0 | 1.0 | 0.00 | 0.00 | 0.00 | 10 | 1010.0 |
| 20260508003509 | 25 | 135 | 0.0 | 1.0 | 0.00 | 0.00 | 0.00 | 10 | 1009.9 |
| 20260508003009 | 25 | 135 | 0.0 | 2.0 | 0.00 | 0.00 | 0.00 | 10 | 1010.0 |
| 20260508002745 | 25 | 135 | 0.0 | 2.0 | 0.00 | 0.00 | 0.00 | 10 | 1009.9 |
| 20260508002703 | 25 | 135 | 0.0 | 2.0 | 0.00 | 0.00 | 0.00 | 10 | 1009.9 |
| 20260508002245 | 25 | 135 | 1.0 | 2.0 | 0.00 | 0.00 | 0.00 | 10 | 1009.9 |
| 20260508001803 | 25 | 135 | 0.0 | 2.0 | 0.00 | 0.00 | 0.00 | 10 | 1009.9 |
| 20260508001745 | 25 | 135 | 0.0 | 2.0 | 0.00 | 0.00 | 0.00 | 10 | 1009.8 |
| 20260508001635 | 25 | 135 | 0.0 | 2.0 | 0.00 | 0.00 | 0.00 | 10 | 1009.7 |
| 20260508001245 | 25 | 135 | 0.0 | 2.0 | 0.00 | 0.00 | 0.00 | 10 | 1009.7 |
| 20260508000903 | 25 | 135 | 1.0 | 2.0 | 0.00 | 0.00 | 0.00 | 10 | 1009.9 |
| 20260508000745 | 25 | 135 | 1.0 | 2.0 | 0.00 | 0.00 | 0.00 | 10 | 1009.8 |
| 20260508000245 | 25 | 135 | 1.0 | 2.0 | 0.00 | 0.00 | 0.00 | 10 | 1009.7 |
| 20260508000003 | 25 | 135 | 1.0 | 2.0 | 0.00 | 0.00 | 0.00 | 10 | 1009.8 |
| 20260507235745 | 25 | 135 | 0.0 | 1.0 | 0.00 | 0.00 | 0.00 | 10 | 1009.7 |
| 20260507235635 | 25 | 135 | 0.0 | 1.0 | 0.00 | 0.00 | 0.00 | 10 | 1009.7 |
| 20260507235403 | 25 | 135 | 0.0 | 2.0 | 0.00 | 0.00 | 0.00 | 10 | 1009.7 |
| 20260507235245 | 25 | 135 | 0.0 | 2.0 | 0.00 | 0.00 | 0.00 | 10 | 1009.8 |
| 20260507234745 | 26 | 135 | 0.0 | 2.0 | 0.00 | 0.00 | 0.00 | 10 | 1009.5 |
| 20260507234503 | 26 | 135 | 0.0 | 2.0 | 0.00 | 0.00 | 0.00 | 10 | 1009.5 |
| 20260507234245 | 26 | 135 | 0.0 | 2.0 | 0.00 | 0.00 | 0.00 | 10 | 1009.5 |
| 20260507233745 | 26 | 135 | 1.0 | 2.0 | 0.00 | 0.00 | 0.00 | 10 | 1009.4 |
| 20260507233635 | 26 | 135 | 1.0 | 2.0 | 0.00 | 0.00 | 0.00 | 10 | 1009.5 |
| 20260507233603 | 26 | 135 | 1.0 | 2.0 | 0.00 | 0.00 | 0.00 | 10 | 1009.5 |
| 20260507233245 | 26 | 0 | 0.0 | 0.0 | 0.00 | 0.00 | 0.00 | 10 | 1009.4 |
| 20260507232745 | 26 | 0 | 0.0 | 0.0 | 0.00 | 0.00 | 0.00 | 10 | 1009.3 |
| 20260507232703 | 26 | 0 | 0.0 | 0.0 | 0.00 | 0.00 | 0.00 | 10 | 1009.3 |
| 20260507232245 | 26 | 0 | 0.0 | 0.0 | 0.00 | 0.00 | 0.00 | 10 | 1009.3 |
| 20260507231803 | 26 | 135 | 0.0 | 1.0 | 0.00 | 0.00 | 0.00 | 10 | 1009.3 |
| 20260507231746 | 26 | 135 | 0.0 | 2.0 | 0.00 | 0.00 | 0.00 | 10 | 1009.2 |
| 20260507231634 | 26 | 135 | 0.0 | 2.0 | 0.00 | 0.00 | 0.00 | 10 | 1009.3 |
| 20260507231245 | 26 | 135 | 0.0 | 2.0 | 0.00 | 0.00 | 0.00 | 10 | 1009.2 |
| 20260507230903 | 27 | 135 | 0.0 | 2.0 | 0.00 | 0.00 | 0.00 | 10 | 1009.2 |
| 20260507230745 | 27 | 135 | 1.0 | 2.0 | 0.00 | 0.00 | 0.00 | 10 | 1009.1 |
| 20260507230245 | 27 | 135 | 1.0 | 2.0 | 0.00 | 0.00 | 0.00 | 10 | 1009.3 |
| 20260507230003 | 27 | 135 | 1.0 | 2.0 | 0.00 | 0.00 | 0.00 | 10 | 1009.1 |
| 20260507225745 | 27 | 135 | 0.0 | 2.0 | 0.00 | 0.00 | 0.00 | 10 | 1009.2 |
| 20260507225635 | 27 | 135 | 1.0 | 2.0 | 0.00 | 0.00 | 0.00 | 10 | 1009.2 |
| 20260507225403 | 27 | 135 | 1.0 | 2.0 | 0.00 | 0.00 | 0.00 | 10 | 1009.2 |
| 20260507225245 | 27 | 135 | 0.0 | 2.0 | 0.00 | 0.00 | 0.00 | 10 | 1009.1 |
| 20260507224745 | 27 | 135 | 0.0 | 2.0 | 0.00 | 0.00 | 0.00 | 10 | 1009.1 |
| 20260507224504 | 27 | 135 | 0.0 | 2.0 | 0.00 | 0.00 | 0.00 | 10 | 1009.2 |
| 20260507224245 | 27 | 135 | 0.0 | 2.0 | 0.00 | 0.00 | 0.00 | 10 | 1009.1 |
| 20260507223745 | 27 | 135 | 0.0 | 2.0 | 0.00 | 0.00 | 0.00 | 10 | 1009.0 |
| 20260507223635 | 27 | 135 | 0.0 | 2.0 | 0.00 | 0.00 | 0.00 | 10 | 1009.0 |
| 20260507223603 | 27 | 135 | 0.0 | 2.0 | 0.00 | 0.00 | 0.00 | 10 | 1009.0 |
| 20260507223245 | 27 | 135 | 1.0 | 2.0 | 0.00 | 0.00 | 0.00 | 10 | 1009.0 |
| 20260507222745 | 27 | 135 | 0.0 | 2.0 | 0.00 | 0.00 | 0.00 | 10 | 1009.0 |
| 20260507222703 | 27 | 135 | 0.0 | 2.0 | 0.00 | 0.00 | 0.00 | 10 | 1009.0 |
| 20260507222245 | 28 | 135 | 0.0 | 2.0 | 0.00 | 0.00 | 0.00 | 10 | 1008.9 |
| 20260507221803 | 28 | 135 | 1.0 | 2.0 | 0.00 | 0.00 | 0.00 | 10 | 1008.9 |
| 20260507221745 | 28 | 135 | 2.0 | 2.0 | 0.00 | 0.00 | 0.00 | 10 | 1009.0 |
| 20260507221635 | 28 | 135 | 1.0 | 2.0 | 0.00 | 0.00 | 0.00 | 10 | 1008.9 |
| 20260507221245 | 28 | 135 | 0.0 | 2.0 | 0.00 | 0.00 | 0.00 | 10 | 1008.9 |
| 20260507220903 | 28 | 135 | 0.0 | 2.0 | 0.00 | 0.00 | 0.00 | 10 | 1008.9 |
| 20260507220745 | 28 | 135 | 0.0 | 2.0 | 0.00 | 0.00 | 0.00 | 10 | 1009.0 |
| 20260507220245 | 28 | 135 | 0.0 | 2.0 | 0.00 | 0.00 | 0.00 | 10 | 1008.8 |
| 20260507220003 | 28 | 138 | 0.0 | 2.0 | 0.00 | 0.00 | 0.00 | 10 | 1008.9 |
| 20260507215745 | 28 | 152 | 1.0 | 2.0 | 0.00 | 0.00 | 0.00 | 10 | 1008.9 |
| 20260507215635 | 28 | 154 | 1.0 | 2.0 | 0.00 | 0.00 | 0.00 | 10 | 1008.9 |
| 20260507215403 | 28 | 160 | 1.0 | 2.0 | 0.00 | 0.00 | 0.00 | 10 | 1008.9 |
| 20260507215245 | 28 | 172 | 1.0 | 2.0 | 0.00 | 0.00 | 0.00 | 10 | 1008.8 |
| 20260507214745 | 28 | 174 | 1.0 | 2.0 | 0.00 | 0.00 | 0.00 | 10 | 1008.9 |
| 20260507214503 | 28 | 163 | 0.0 | 2.0 | 0.00 | 0.00 | 0.00 | 10 | 1008.8 |
| 20260507214245 | 28 | 149 | 0.0 | 2.0 | 0.00 | 0.00 | 0.00 | 10 | 1008.7 |
| 20260507213746 | 28 | 135 | 0.0 | 2.0 | 0.00 | 0.00 | 0.00 | 10 | 1008.8 |
| 20260507213634 | 28 | 135 | 1.0 | 2.0 | 0.00 | 0.00 | 0.00 | 10 | 1008.7 |
| 20260507213603 | 28 | 135 | 1.0 | 2.0 | 0.00 | 0.00 | 0.00 | 10 | 1008.7 |
| 20260507213246 | 28 | 135 | 1.0 | 2.0 | 0.00 | 0.00 | 0.00 | 10 | 1008.8 |
| 20260507212746 | 28 | 157 | 0.0 | 2.0 | 0.00 | 0.00 | 0.00 | 10 | 1008.6 |
| 20260507212703 | 28 | 157 | 0.0 | 2.0 | 0.00 | 0.00 | 0.00 | 10 | 1008.6 |
| 20260507212246 | 28 | 176 | 0.0 | 2.0 | 0.00 | 0.00 | 0.00 | 10 | 1008.6 |
| 20260507211803 | 28 | 180 | 0.0 | 2.0 | 0.00 | 0.00 | 0.00 | 10 | 1008.5 |
| 20260507211746 | 28 | 171 | 0.0 | 2.0 | 0.00 | 0.00 | 0.00 | 10 | 1008.6 |
| 20260507211254 | 28 | 150 | 0.0 | 2.0 | 0.00 | 0.00 | 0.00 | 10 | 1008.6 |
| 20260507210903 | 29 | 142 | 2.0 | 2.0 | 0.00 | 0.00 | 0.00 | 10 | 1008.4 |
| 20260507210754 | 29 | 135 | 0.0 | 2.0 | 0.00 | 0.00 | 0.00 | 10 | 1008.4 |
| 20260507210254 | 29 | 135 | 0.0 | 2.0 | 0.00 | 0.00 | 0.00 | 10 | 1008.3 |
| 20260507210003 | 29 | 135 | 0.0 | 2.0 | 0.00 | 0.00 | 0.00 | 10 | 1008.4 |
| 20260507205754 | 29 | 135 | 0.0 | 2.0 | 0.00 | 0.00 | 0.00 | 10 | 1008.3 |
| 20260507205634 | 29 | 135 | 0.0 | 2.0 | 0.00 | 0.00 | 0.00 | 10 | 1008.3 |
| 20260507205403 | 29 | 135 | 0.0 | 2.0 | 0.00 | 0.00 | 0.00 | 10 | 1008.2 |
| 20260507205254 | 29 | 135 | 1.0 | 2.0 | 0.00 | 0.00 | 0.00 | 10 | 1008.3 |
| 20260507204754 | 29 | 135 | 1.0 | 2.0 | 0.00 | 0.00 | 0.00 | 10 | 1008.2 |
| 20260507204503 | 29 | 135 | 0.0 | 2.0 | 0.00 | 0.00 | 0.00 | 10 | 1008.1 |
| 20260507204254 | 29 | 135 | 0.0 | 2.0 | 0.00 | 0.00 | 0.00 | 10 | 1008.1 |
| 20260507203754 | 30 | 135 | 1.0 | 2.0 | 0.00 | 0.00 | 0.00 | 10 | 1008.3 |
| 20260507203634 | 30 | 135 | 0.0 | 1.0 | 0.00 | 0.00 | 0.00 | 10 | 1008.0 |
| 20260507203603 | 30 | 135 | 0.0 | 1.0 | 0.00 | 0.00 | 0.00 | 10 | 1008.0 |
| 20260507203254 | 30 | 135 | 0.0 | 2.0 | 0.00 | 0.00 | 0.00 | 10 | 1008.1 |
| 20260507202754 | 30 | 135 | 0.0 | 2.0 | 0.00 | 0.00 | 0.00 | 10 | 1008.1 |
| 20260507202703 | 30 | 135 | 0.0 | 2.0 | 0.00 | 0.00 | 0.00 | 10 | 1008.1 |
| 20260507202254 | 31 | 136 | 1.0 | 2.0 | 0.00 | 0.00 | 0.00 | 10 | 1008.1 |
| 20260507201803 | 31 | 141 | 0.0 | 2.0 | 0.00 | 0.00 | 0.00 | 10 | 1008.1 |
| 20260507201754 | 31 | 142 | 1.0 | 2.0 | 0.00 | 0.00 | 0.00 | 10 | 1008.0 |
| 20260507201634 | 31 | 143 | 1.0 | 2.0 | 0.00 | 0.00 | 0.00 | 10 | 1007.9 |
| 20260507201254 | 32 | 157 | 0.0 | 2.0 | 0.00 | 0.00 | 0.00 | 10 | 1008.1 |
| 20260507200903 | 32 | 157 | 0.0 | 1.0 | 0.00 | 0.00 | 0.00 | 10 | 1007.9 |
| 20260507200754 | 32 | 157 | 0.0 | 1.0 | 0.00 | 0.00 | 0.00 | 10 | 1007.9 |
| 20260507200255 | 33 | 135 | 0.0 | 2.0 | 0.00 | 0.00 | 0.00 | 10 | 1007.8 |
| 20260507200003 | 33 | 135 | 0.0 | 2.0 | 0.00 | 0.00 | 0.00 | 10 | 1007.8 |
| 20260507195754 | 33 | 135 | 0.0 | 2.0 | 0.00 | 0.00 | 0.00 | 10 | 1007.7 |
| 20260507195634 | 33 | 135 | 0.0 | 2.0 | 0.00 | 0.00 | 0.00 | 10 | 1007.7 |
| 20260507195403 | 34 | 135 | 0.0 | 2.0 | 0.00 | 0.00 | 0.00 | 10 | 1007.7 |
| 20260507195254 | 34 | 135 | 1.0 | 2.0 | 0.00 | 0.00 | 0.00 | 10 | 1007.5 |
| 20260507194754 | 35 | 135 | 1.0 | 2.0 | 0.00 | 0.00 | 0.00 | 10 | 1007.5 |
| 20260507194503 | 35 | 135 | 0.0 | 2.0 | 0.00 | 0.00 | 0.00 | 10 | 1007.5 |
| 20260507194254 | 35 | 135 | 0.0 | 2.0 | 0.00 | 0.00 | 0.00 | 10 | 1007.5 |
| 20260507193748 | 36 | 135 | 0.0 | 2.0 | 0.00 | 0.00 | 0.00 | 10 | 1007.4 |
| 20260507193636 | 36 | 135 | 0.0 | 2.0 | 0.00 | 0.00 | 0.00 | 10 | 1007.4 |
| 20260507193603 | 36 | 135 | 0.0 | 2.0 | 0.00 | 0.00 | 0.00 | 10 | 1007.4 |
| 20260507193248 | 36 | 135 | 0.0 | 2.0 | 0.00 | 0.00 | 0.00 | 10 | 1007.3 |
| 20260507192748 | 37 | 138 | 0.0 | 2.0 | 0.00 | 0.00 | 0.00 | 10 | 1007.1 |
| 20260507192703 | 37 | 138 | 0.0 | 2.0 | 0.00 | 0.00 | 0.00 | 10 | 1007.1 |
| 20260507192248 | 38 | 141 | 1.0 | 2.0 | 0.00 | 0.00 | 0.00 | 10 | 1007.2 |
| 20260507191803 | 39 | 0 | 0.0 | 0.0 | 0.00 | 0.00 | 0.00 | 10 | 1007.1 |
| 20260507191748 | 39 | 225 | 0.0 | 2.0 | 0.00 | 0.00 | 0.00 | 10 | 1007.2 |
| 20260507191636 | 39 | 225 | 0.0 | 2.0 | 0.00 | 0.00 | 0.00 | 10 | 1007.2 |
| 20260507191248 | 40 | 225 | 0.0 | 2.0 | 0.00 | 0.00 | 0.00 | 10 | 1007.0 |
| 20260507190903 | 40 | 225 | 0.0 | 3.0 | 0.00 | 0.00 | 0.00 | 10 | 1006.9 |
| 20260507190748 | 41 | 230 | 1.0 | 3.0 | 0.00 | 0.00 | 0.00 | 10 | 1006.9 |
| 20260507190248 | 41 | 242 | 1.0 | 3.0 | 0.00 | 0.00 | 0.00 | 10 | 1007.0 |
| 20260507190004 | 41 | 242 | 1.0 | 3.0 | 0.00 | 0.00 | 0.00 | 10 | 1006.9 |
| 20260507185748 | 42 | 235 | 1.0 | 2.0 | 0.00 | 0.00 | 0.00 | 10 | 1007.0 |
| 20260507185636 | 42 | 236 | 1.0 | 2.0 | 0.00 | 0.00 | 0.00 | 10 | 1006.9 |
| 20260507185403 | 42 | 234 | 1.0 | 2.0 | 0.00 | 0.00 | 0.00 | 10 | 1006.9 |
| 20260507185248 | 43 | 241 | 1.0 | 2.0 | 0.00 | 0.00 | 0.00 | 10 | 1006.9 |
| 20260507184748 | 44 | 265 | 0.0 | 3.0 | 0.00 | 0.00 | 0.00 | 10 | 1006.7 |
| 20260507184503 | 44 | 263 | 0.0 | 4.0 | 0.00 | 0.00 | 0.00 | 10 | 1006.7 |
| 20260507184248 | 44 | 266 | 0.0 | 4.0 | 0.00 | 0.00 | 0.00 | 10 | 1006.8 |
| 20260507183748 | 43 | 297 | 1.0 | 4.0 | 0.00 | 0.00 | 0.00 | 10 | 1006.8 |
| 20260507183636 | 43 | 306 | 2.0 | 4.0 | 0.00 | 0.00 | 0.00 | 10 | 1006.7 |
| 20260507183603 | 43 | 306 | 2.0 | 4.0 | 0.00 | 0.00 | 0.00 | 10 | 1006.7 |
| 20260507183248 | 43 | 310 | 1.0 | 5.0 | 0.00 | 0.00 | 0.00 | 10 | 1006.6 |
| 20260507182749 | 44 | 282 | 2.0 | 5.0 | 0.00 | 0.00 | 0.00 | 10 | 1006.7 |
| 20260507182703 | 44 | 280 | 2.0 | 5.0 | 0.00 | 0.00 | 0.00 | 10 | 1006.7 |
| 20260507182248 | 44 | 273 | 2.0 | 8.0 | 0.00 | 0.00 | 0.00 | 10 | 1006.6 |
| 20260507181803 | 45 | 277 | 2.0 | 8.0 | 0.00 | 0.00 | 0.00 | 10 | 1006.5 |
| 20260507181748 | 45 | 269 | 3.0 | 8.0 | 0.00 | 0.00 | 0.00 | 10 | 1006.5 |
| 20260507181636 | 45 | 262 | 2.0 | 8.0 | 0.00 | 0.00 | 0.00 | 10 | 1006.6 |
| 20260507181248 | 46 | 261 | 4.0 | 8.0 | 0.00 | 0.00 | 0.00 | 10 | 1006.6 |
| 20260507180903 | 46 | 263 | 3.0 | 8.0 | 0.00 | 0.00 | 0.00 | 10 | 1006.6 |
| 20260507180748 | 46 | 267 | 2.0 | 8.0 | 0.00 | 0.00 | 0.00 | 10 | 1006.6 |
| 20260507180248 | 46 | 270 | 5.0 | 8.0 | 0.00 | 0.00 | 0.00 | 10 | 1006.4 |
| 20260507180003 | 46 | 274 | 5.0 | 8.0 | 0.00 | 0.00 | 0.00 | 10 | 1006.4 |
| 20260507175748 | 46 | 281 | 4.0 | 8.0 | 0.00 | 0.00 | 0.00 | 10 | 1006.4 |
| 20260507175636 | 46 | 286 | 4.0 | 8.0 | 0.00 | 0.00 | 0.00 | 10 | 1006.4 |
| 20260507175403 | 46 | 298 | 3.0 | 8.0 | 0.00 | 0.00 | 0.00 | 10 | 1006.4 |
| 20260507175248 | 46 | 313 | 4.0 | 9.0 | 0.00 | 0.00 | 0.00 | 10 | 1006.3 |
| 20260507174748 | 46 | 309 | 2.0 | 10.0 | 0.00 | 0.00 | 0.00 | 10 | 1006.3 |
| 20260507174504 | 46 | 307 | 4.0 | 10.0 | 0.00 | 0.00 | 0.00 | 10 | 1006.2 |
| 20260507174248 | 46 | 306 | 3.0 | 10.0 | 0.00 | 0.00 | 0.00 | 10 | 1006.1 |
| 20260507173748 | 46 | 309 | 4.0 | 10.0 | 0.00 | 0.00 | 0.00 | 10 | 1006.3 |
| 20260507173636 | 46 | 317 | 3.0 | 10.0 | 0.00 | 0.00 | 0.00 | 10 | 1006.0 |
| 20260507173603 | 46 | 317 | 3.0 | 10.0 | 0.00 | 0.00 | 0.00 | 10 | 1006.0 |
| 20260507173248 | 46 | 307 | 4.0 | 10.0 | 0.00 | 0.00 | 0.00 | 10 | 1006.2 |
| 20260507172748 | 46 | 298 | 3.0 | 10.0 | 0.00 | 0.00 | 0.00 | 10 | 1006.2 |
| 20260507172704 | 46 | 297 | 3.0 | 10.0 | 0.00 | 0.00 | 0.00 | 10 | 1006.2 |
| 20260507172248 | 46 | 279 | 3.0 | 10.0 | 0.00 | 0.00 | 0.00 | 10 | 1006.1 |
| 20260507171803 | 47 | 279 | 3.0 | 10.0 | 0.00 | 0.00 | 0.00 | 10 | 1005.9 |
| 20260507171748 | 47 | 287 | 5.0 | 10.0 | 0.00 | 0.00 | 0.00 | 10 | 1005.9 |
| 20260507171636 | 47 | 287 | 7.0 | 10.0 | 0.00 | 0.00 | 0.00 | 10 | 1006.0 |
| 20260507171248 | 47 | 279 | 4.0 | 8.0 | 0.00 | 0.00 | 0.00 | 10 | 1005.9 |
| 20260507170903 | 47 | 285 | 3.0 | 9.0 | 0.00 | 0.00 | 0.00 | 10 | 1005.8 |
| 20260507170748 | 47 | 292 | 4.0 | 10.0 | 0.00 | 0.00 | 0.00 | 10 | 1005.9 |
| 20260507170248 | 47 | 331 | 4.0 | 11.0 | 0.00 | 0.00 | 0.00 | 10 | 1005.8 |
| 20260507170003 | 47 | 322 | 4.0 | 11.0 | 0.00 | 0.00 | 0.00 | 10 | 1005.7 |
| 20260507165748 | 47 | 324 | 4.0 | 11.0 | 0.00 | 0.00 | 0.00 | 10 | 1005.7 |
| 20260507165636 | 47 | 321 | 6.0 | 11.0 | 0.00 | 0.00 | 0.00 | 10 | 1005.7 |
| 20260507165403 | 47 | 313 | 6.0 | 11.0 | 0.00 | 0.00 | 0.00 | 10 | 1005.8 |
| 20260507165249 | 47 | 310 | 5.0 | 11.0 | 0.00 | 0.00 | 0.00 | 10 | 1005.7 |
| 20260507164749 | 47 | 310 | 7.0 | 11.0 | 0.00 | 0.00 | 0.00 | 10 | 1005.6 |
| 20260507164503 | 47 | 305 | 4.0 | 11.0 | 0.00 | 0.00 | 0.00 | 10 | 1005.7 |
| 20260507164249 | 47 | 299 | 5.0 | 11.0 | 0.00 | 0.00 | 0.00 | 10 | 1005.6 |
| 20260507163749 | 47 | 312 | 8.0 | 11.0 | 0.00 | 0.00 | 0.00 | 10 | 1005.5 |
| 20260507163635 | 47 | 318 | 7.0 | 11.0 | 0.00 | 0.00 | 0.00 | 10 | 1005.6 |
| 20260507163603 | 47 | 318 | 7.0 | 11.0 | 0.00 | 0.00 | 0.00 | 10 | 1005.6 |
| 20260507163249 | 47 | 336 | 4.0 | 11.0 | 0.00 | 0.00 | 0.00 | 10 | 1005.5 |
| 20260507162749 | 46 | 347 | 4.0 | 9.0 | 0.00 | 0.00 | 0.00 | 10 | 1005.4 |
| 20260507162703 | 46 | 345 | 4.0 | 9.0 | 0.00 | 0.00 | 0.00 | 10 | 1005.4 |
| 20260507162249 | 44 | 334 | 2.0 | 9.0 | 0.00 | 0.00 | 0.00 | 10 | 1005.4 |
| 20260507161803 | 43 | 305 | 4.0 | 7.0 | 0.00 | 0.00 | 0.00 | 10 | 1005.4 |
| 20260507161749 | 43 | 295 | 2.0 | 7.0 | 0.00 | 0.00 | 0.00 | 10 | 1005.4 |
| 20260507161635 | 43 | 292 | 4.0 | 7.0 | 0.00 | 0.00 | 0.00 | 10 | 1005.3 |
| 20260507161249 | 43 | 273 | 3.0 | 7.0 | 0.00 | 0.00 | 0.00 | 10 | 1005.3 |
| 20260507160903 | 43 | 274 | 4.0 | 6.0 | 0.00 | 0.00 | 0.00 | 10 | 1005.4 |
| 20260507160749 | 43 | 285 | 4.0 | 8.0 | 0.00 | 0.00 | 0.00 | 10 | 1005.3 |
| 20260507160249 | 43 | 328 | 4.0 | 8.0 | 0.00 | 0.00 | 0.00 | 10 | 1005.2 |
| 20260507160003 | 43 | 347 | 4.0 | 8.0 | 0.00 | 0.00 | 0.00 | 10 | 1005.2 |
| 20260507155748 | 44 | 341 | 4.0 | 9.0 | 0.00 | 0.00 | 0.00 | 10 | 1005.1 |
| 20260507155635 | 44 | 342 | 3.0 | 9.0 | 0.00 | 0.00 | 0.00 | 10 | 1005.2 |
| 20260507155403 | 44 | 338 | 2.0 | 11.0 | 0.00 | 0.00 | 0.00 | 10 | 1005.2 |
| 20260507155249 | 44 | 333 | 4.0 | 11.0 | 0.00 | 0.00 | 0.00 | 10 | 1005.1 |
| 20260507154749 | 46 | 315 | 4.0 | 11.0 | 0.00 | 0.00 | 0.00 | 10 | 1005.1 |
| 20260507154503 | 47 | 322 | 6.0 | 10.0 | 0.00 | 0.00 | 0.00 | 10 | 1005.0 |
| 20260507154249 | 46 | 315 | 6.0 | 8.0 | 0.00 | 0.00 | 0.00 | 10 | 1005.0 |
| 20260507153748 | 45 | 328 | 4.0 | 8.0 | 0.00 | 0.00 | 0.00 | 10 | 1005.1 |
| 20260507153635 | 44 | 324 | 4.0 | 8.0 | 0.00 | 0.00 | 0.00 | 10 | 1005.1 |
| 20260507153603 | 44 | 324 | 4.0 | 8.0 | 0.00 | 0.00 | 0.00 | 10 | 1005.1 |
| 20260507153248 | 44 | 304 | 1.0 | 8.0 | 0.00 | 0.00 | 0.00 | 10 | 1005.0 |
| 20260507152748 | 44 | 297 | 4.0 | 8.0 | 0.00 | 0.00 | 0.00 | 10 | 1004.9 |
| 20260507152703 | 44 | 297 | 4.0 | 8.0 | 0.00 | 0.00 | 0.00 | 10 | 1004.9 |
| 20260507152248 | 44 | 321 | 4.0 | 10.0 | 0.00 | 0.00 | 0.00 | 10 | 1004.9 |
| 20260507151803 | 45 | 339 | 3.0 | 10.0 | 0.00 | 0.00 | 0.00 | 10 | 1005.0 |
| 20260507151747 | 45 | 341 | 4.0 | 10.0 | 0.00 | 0.00 | 0.00 | 10 | 1004.9 |
| 20260507151635 | 45 | 338 | 2.0 | 10.0 | 0.00 | 0.00 | 0.00 | 10 | 1004.8 |
| 20260507151247 | 46 | 304 | 5.0 | 9.0 | 0.00 | 0.00 | 0.00 | 10 | 1004.9 |
| 20260507150903 | 46 | 280 | 3.0 | 8.0 | 0.00 | 0.00 | 0.00 | 10 | 1004.9 |
| 20260507150747 | 45 | 269 | 3.0 | 6.0 | 0.00 | 0.00 | 0.00 | 10 | 1004.9 |
| 20260507150247 | 45 | 260 | 3.0 | 6.0 | 0.00 | 0.00 | 0.00 | 10 | 1004.9 |
| 20260507150003 | 45 | 261 | 3.0 | 6.0 | 0.00 | 0.00 | 0.00 | 10 | 1004.7 |
| 20260507145747 | 45 | 280 | 2.0 | 8.0 | 0.00 | 0.00 | 0.00 | 10 | 1004.7 |
| 20260507145635 | 45 | 285 | 2.0 | 8.0 | 0.00 | 0.00 | 0.00 | 10 | 1004.8 |
| 20260507145403 | 45 | 302 | 1.0 | 8.0 | 0.00 | 0.00 | 0.00 | 10 | 1004.6 |
| 20260507145248 | 45 | 316 | 2.0 | 8.0 | 0.00 | 0.00 | 0.00 | 10 | 1004.7 |
| 20260507144747 | 44 | 329 | 2.0 | 8.0 | 0.00 | 0.00 | 0.00 | 10 | 1004.7 |
| 20260507144503 | 44 | 328 | 3.0 | 8.0 | 0.00 | 0.00 | 0.00 | 10 | 1004.8 |
| 20260507144247 | 44 | 337 | 2.0 | 9.0 | 0.00 | 0.00 | 0.00 | 10 | 1004.6 |
| 20260507143747 | 44 | 342 | 4.0 | 10.0 | 0.00 | 0.00 | 0.00 | 10 | 1004.6 |
| 20260507143635 | 45 | 339 | 4.0 | 10.0 | 0.00 | 0.00 | 0.00 | 10 | 1004.5 |
| 20260507143603 | 45 | 339 | 4.0 | 10.0 | 0.00 | 0.00 | 0.00 | 10 | 1004.5 |
| 20260507143247 | 45 | 339 | 6.0 | 11.0 | 0.00 | 0.00 | 0.00 | 10 | 1004.5 |
| 20260507142748 | 44 | 333 | 4.0 | 11.0 | 0.00 | 0.00 | 0.00 | 10 | 1004.7 |
| 20260507142703 | 44 | 334 | 4.0 | 11.0 | 0.00 | 0.00 | 0.00 | 10 | 1004.7 |
| 20260507142247 | 45 | 334 | 4.0 | 12.0 | 0.00 | 0.00 | 0.00 | 10 | 1004.7 |
| 20260507141803 | 45 | 332 | 4.0 | 12.0 | 0.00 | 0.00 | 0.00 | 10 | 1004.7 |
| 20260507141747 | 45 | 327 | 4.0 | 12.0 | 0.00 | 0.00 | 0.00 | 10 | 1004.5 |
| 20260507141636 | 45 | 328 | 8.0 | 12.0 | 0.00 | 0.00 | 0.00 | 10 | 1004.5 |
| 20260507141247 | 46 | 336 | 4.0 | 11.0 | 0.00 | 0.00 | 0.00 | 10 | 1004.7 |
| 20260507140903 | 45 | 346 | 4.0 | 12.0 | 0.00 | 0.00 | 0.00 | 10 | 1004.4 |
| 20260507140747 | 44 | 350 | 5.0 | 12.0 | 0.00 | 0.00 | 0.00 | 10 | 1004.6 |
| 20260507140247 | 44 | 355 | 4.0 | 12.0 | 0.00 | 0.00 | 0.00 | 10 | 1004.5 |
| 20260507140003 | 44 | 352 | 4.0 | 12.0 | 0.00 | 0.00 | 0.00 | 10 | 1004.4 |
| 20260507135747 | 45 | 348 | 8.0 | 12.0 | 0.00 | 0.00 | 0.00 | 10 | 1004.4 |
| 20260507135635 | 45 | 347 | 7.0 | 12.0 | 0.00 | 0.00 | 0.00 | 10 | 1004.4 |
| 20260507135403 | 45 | 342 | 5.0 | 12.0 | 0.00 | 0.00 | 0.00 | 10 | 1004.3 |
| 20260507135247 | 45 | 338 | 6.0 | 12.0 | 0.00 | 0.00 | 0.00 | 10 | 1004.4 |
| 20260507134747 | 45 | 355 | 7.0 | 12.0 | 0.00 | 0.00 | 0.00 | 10 | 1004.3 |
| 20260507134503 | 45 | 355 | 7.0 | 13.0 | 0.00 | 0.00 | 0.00 | 10 | 1004.3 |
| 20260507134248 | 44 | 3 | 4.0 | 13.0 | 0.00 | 0.00 | 0.00 | 10 | 1004.3 |
| 20260507133748 | 44 | 342 | 9.0 | 13.0 | 0.00 | 0.00 | 0.00 | 10 | 1004.2 |
| 20260507133634 | 44 | 342 | 9.0 | 13.0 | 0.00 | 0.00 | 0.00 | 10 | 1004.2 |
| 20260507133603 | 44 | 342 | 9.0 | 13.0 | 0.00 | 0.00 | 0.00 | 10 | 1004.2 |
| 20260507133248 | 45 | 330 | 5.0 | 13.0 | 0.00 | 0.00 | 0.00 | 10 | 1004.2 |
| 20260507132748 | 44 | 340 | 6.0 | 12.0 | 0.00 | 0.00 | 0.00 | 10 | 1004.2 |
| 20260507132703 | 44 | 341 | 6.0 | 12.0 | 0.00 | 0.00 | 0.00 | 10 | 1004.2 |
| 20260507132248 | 44 | 334 | 6.0 | 11.0 | 0.00 | 0.00 | 0.00 | 10 | 1004.0 |
| 20260507131803 | 43 | 325 | 4.0 | 11.0 | 0.00 | 0.00 | 0.00 | 10 | 1004.1 |
| 20260507131748 | 43 | 322 | 4.0 | 11.0 | 0.00 | 0.00 | 0.00 | 10 | 1004.1 |
| 20260507131448 | 43 | 316 | 7.0 | 11.0 | 0.00 | 0.00 | 0.00 | 10 | 1004.1 |
| 20260507130948 | 43 | 336 | 4.0 | 11.0 | 0.00 | 0.00 | 0.00 | 10 | 1004.1 |
| 20260507130903 | 43 | 336 | 4.0 | 11.0 | 0.00 | 0.00 | 0.00 | 10 | 1004.1 |
| 20260507130448 | 43 | 342 | 7.0 | 11.0 | 0.00 | 0.00 | 0.00 | 10 | 1004.1 |
| 20260507130003 | 43 | 342 | 4.0 | 11.0 | 0.00 | 0.00 | 0.00 | 10 | 1004.0 |
| 20260507125948 | 43 | 339 | 5.0 | 11.0 | 0.00 | 0.00 | 0.00 | 10 | 1004.1 |
| 20260507125634 | 43 | 334 | 4.0 | 12.0 | 0.00 | 0.00 | 0.00 | 10 | 1004.1 |
| 20260507125448 | 43 | 329 | 4.0 | 12.0 | 0.00 | 0.00 | 0.00 | 10 | 1004.0 |
| 20260507125403 | 43 | 329 | 4.0 | 12.0 | 0.00 | 0.00 | 0.00 | 10 | 1004.0 |
| 20260507124948 | 43 | 320 | 4.0 | 12.0 | 0.00 | 0.00 | 0.00 | 10 | 1003.9 |
| 20260507124503 | 44 | 323 | 5.0 | 10.0 | 0.00 | 0.00 | 0.00 | 10 | 1004.1 |
| 20260507124448 | 44 | 324 | 7.0 | 10.0 | 0.00 | 0.00 | 0.00 | 10 | 1004.0 |
| 20260507123948 | 44 | 325 | 6.0 | 10.0 | 0.00 | 0.00 | 0.00 | 10 | 1003.9 |
| 20260507123634 | 44 | 330 | 4.0 | 9.0 | 0.00 | 0.00 | 0.00 | 10 | 1003.9 |
| 20260507123603 | 44 | 330 | 4.0 | 9.0 | 0.00 | 0.00 | 0.00 | 10 | 1003.9 |
| 20260507123448 | 44 | 338 | 4.0 | 13.0 | 0.00 | 0.00 | 0.00 | 10 | 1003.9 |
| 20260507122948 | 44 | 341 | 6.0 | 13.0 | 0.00 | 0.00 | 0.00 | 10 | 1003.9 |
| 20260507122705 | 44 | 346 | 4.0 | 13.0 | 0.00 | 0.00 | 0.00 | 10 | 1003.9 |
| 20260507122448 | 45 | 349 | 5.0 | 13.0 | 0.00 | 0.00 | 0.00 | 10 | 1003.8 |
| 20260507121948 | 44 | 340 | 6.0 | 11.0 | 0.00 | 0.00 | 0.00 | 10 | 1003.9 |
| 20260507121803 | 44 | 333 | 8.0 | 11.0 | 0.00 | 0.00 | 0.00 | 10 | 1003.8 |
| 20260507121634 | 44 | 327 | 6.0 | 11.0 | 0.00 | 0.00 | 0.00 | 10 | 1003.9 |
| 20260507121448 | 44 | 323 | 4.0 | 11.0 | 0.00 | 0.00 | 0.00 | 10 | 1003.9 |
| 20260507120949 | 44 | 336 | 2.0 | 10.0 | 0.00 | 0.00 | 0.00 | 10 | 1003.8 |
| 20260507120903 | 44 | 336 | 2.0 | 10.0 | 0.00 | 0.00 | 0.00 | 10 | 1003.8 |
| 20260507120449 | 44 | 345 | 4.0 | 11.0 | 0.00 | 0.00 | 0.00 | 10 | 1003.8 |
| 20260507120004 | 43 | 5 | 4.0 | 15.0 | 0.00 | 0.00 | 0.00 | 10 | 1003.8 |
| 20260507115949 | 43 | 5 | 6.0 | 15.0 | 0.00 | 0.00 | 0.00 | 10 | 1003.8 |
| 20260507115635 | 44 | 360 | 6.0 | 15.0 | 0.00 | 0.00 | 0.00 | 10 | 1003.8 |
| 20260507115449 | 44 | 356 | 5.0 | 15.0 | 0.00 | 0.00 | 0.00 | 10 | 1003.8 |
| 20260507115403 | 44 | 356 | 5.0 | 15.0 | 0.00 | 0.00 | 0.00 | 10 | 1003.8 |
| 20260507114949 | 43 | 344 | 8.0 | 14.0 | 0.00 | 0.00 | 0.00 | 10 | 1003.7 |
| 20260507114503 | 44 | 359 | 8.0 | 11.0 | 0.00 | 0.00 | 0.00 | 10 | 1003.7 |
| 20260507114449 | 44 | 358 | 5.0 | 11.0 | 0.00 | 0.00 | 0.00 | 10 | 1003.7 |
| 20260507113949 | 44 | 360 | 8.0 | 11.0 | 0.00 | 0.00 | 0.00 | 10 | 1003.6 |
| 20260507113635 | 44 | 340 | 7.0 | 11.0 | 0.00 | 0.00 | 0.00 | 10 | 1003.6 |
| 20260507113603 | 44 | 340 | 7.0 | 11.0 | 0.00 | 0.00 | 0.00 | 10 | 1003.6 |
| 20260507113449 | 44 | 342 | 4.0 | 12.0 | 0.00 | 0.00 | 0.00 | 10 | 1003.6 |
| 20260507112949 | 44 | 332 | 6.0 | 12.0 | 0.00 | 0.00 | 0.00 | 10 | 1003.6 |
| 20260507112703 | 44 | 343 | 5.0 | 12.0 | 0.00 | 0.00 | 0.00 | 10 | 1003.5 |
| 20260507112449 | 44 | 348 | 5.0 | 11.0 | 0.00 | 0.00 | 0.00 | 10 | 1003.5 |
| 20260507111949 | 44 | 360 | 4.0 | 11.0 | 0.00 | 0.00 | 0.00 | 10 | 1003.4 |
| 20260507111803 | 44 | 7 | 7.0 | 11.0 | 0.00 | 0.00 | 0.00 | 10 | 1003.4 |
| 20260507111635 | 44 | 2 | 6.0 | 10.0 | 0.00 | 0.00 | 0.00 | 10 | 1003.4 |
| 20260507111449 | 44 | 349 | 5.0 | 11.0 | 0.00 | 0.00 | 0.00 | 10 | 1003.5 |
| 20260507110949 | 44 | 349 | 4.0 | 11.0 | 0.00 | 0.00 | 0.00 | 10 | 1003.5 |
| 20260507110904 | 44 | 349 | 4.0 | 11.0 | 0.00 | 0.00 | 0.00 | 10 | 1003.5 |
| 20260507110449 | 43 | 340 | 4.0 | 10.0 | 0.00 | 0.00 | 0.00 | 10 | 1003.4 |
| 20260507110003 | 43 | 342 | 5.0 | 11.0 | 0.00 | 0.00 | 0.00 | 10 | 1003.4 |
| 20260507105949 | 43 | 333 | 7.0 | 11.0 | 0.00 | 0.00 | 0.00 | 10 | 1003.3 |
| 20260507105635 | 43 | 335 | 7.0 | 12.0 | 0.00 | 0.00 | 0.00 | 10 | 1003.4 |
| 20260507105449 | 43 | 349 | 4.0 | 13.0 | 0.00 | 0.00 | 0.00 | 10 | 1003.4 |
| 20260507105403 | 43 | 349 | 4.0 | 13.0 | 0.00 | 0.00 | 0.00 | 10 | 1003.4 |
| 20260507104949 | 43 | 351 | 5.0 | 13.0 | 0.00 | 0.00 | 0.00 | 10 | 1003.3 |
| 20260507104504 | 43 | 353 | 8.0 | 12.0 | 0.00 | 0.00 | 0.00 | 10 | 1003.3 |
| 20260507104449 | 43 | 346 | 5.0 | 12.0 | 0.00 | 0.00 | 0.00 | 10 | 1003.3 |
| 20260507103948 | 43 | 338 | 4.0 | 11.0 | 0.00 | 0.00 | 0.00 | 10 | 1003.2 |
| 20260507103634 | 43 | 334 | 6.0 | 11.0 | 0.00 | 0.00 | 0.00 | 10 | 1003.2 |
| 20260507103603 | 43 | 335 | 6.0 | 11.0 | 0.00 | 0.00 | 0.00 | 10 | 1003.2 |
| 20260507103449 | 43 | 335 | 6.0 | 11.0 | 0.00 | 0.00 | 0.00 | 10 | 1003.3 |
| 20260507102949 | 42 | 333 | 4.0 | 9.0 | 0.00 | 0.00 | 0.00 | 10 | 1003.2 |
| 20260507102703 | 43 | 330 | 4.0 | 9.0 | 0.00 | 0.00 | 0.00 | 10 | 1003.1 |
| 20260507102449 | 43 | 344 | 4.0 | 11.0 | 0.00 | 0.00 | 0.00 | 10 | 1003.1 |
| 20260507101949 | 43 | 351 | 3.0 | 11.0 | 0.00 | 0.00 | 0.00 | 10 | 1003.0 |
| 20260507101803 | 43 | 353 | 4.0 | 11.0 | 0.00 | 0.00 | 0.00 | 10 | 1002.9 |
| 20260507101635 | 43 | 348 | 4.0 | 11.0 | 0.00 | 0.00 | 0.00 | 10 | 1003.0 |
| 20260507101449 | 43 | 337 | 3.0 | 11.0 | 0.00 | 0.00 | 0.00 | 10 | 1002.9 |
| 20260507100949 | 43 | 343 | 7.0 | 11.0 | 0.00 | 0.00 | 0.00 | 10 | 1002.9 |
| 20260507100903 | 43 | 343 | 7.0 | 11.0 | 0.00 | 0.00 | 0.00 | 10 | 1002.9 |
| 20260507100449 | 43 | 350 | 6.0 | 12.0 | 0.00 | 0.00 | 0.00 | 10 | 1002.6 |
| 20260507100005 | 43 | 351 | 4.0 | 12.0 | 0.00 | 0.00 | 0.00 | 10 | 1002.8 |
| 20260507095949 | 43 | 353 | 6.0 | 12.0 | 0.00 | 0.00 | 0.00 | 10 | 1002.8 |
| 20260507095635 | 43 | 352 | 6.0 | 10.0 | 0.00 | 0.00 | 0.00 | 10 | 1002.8 |
| 20260507095449 | 43 | 358 | 7.0 | 10.0 | 0.00 | 0.00 | 0.00 | 10 | 1002.8 |
| 20260507095403 | 43 | 358 | 7.0 | 10.0 | 0.00 | 0.00 | 0.00 | 10 | 1002.8 |
| 20260507094949 | 43 | 357 | 3.0 | 9.0 | 0.00 | 0.00 | 0.00 | 10 | 1002.5 |
| 20260507094503 | 43 | 349 | 5.0 | 10.0 | 0.00 | 0.00 | 0.00 | 10 | 1002.4 |
| 20260507094449 | 43 | 343 | 4.0 | 10.0 | 0.00 | 0.00 | 0.00 | 10 | 1002.5 |
| 20260507093948 | 42 | 2 | 4.0 | 12.0 | 0.00 | 0.00 | 0.00 | 10 | 1002.4 |
| 20260507093634 | 43 | 1 | 4.0 | 12.0 | 0.00 | 0.00 | 0.00 | 10 | 1002.5 |
| 20260507093603 | 43 | 3 | 4.0 | 12.0 | 0.00 | 0.00 | 0.00 | 10 | 1002.5 |
| 20260507093448 | 42 | 359 | 4.0 | 13.0 | 0.00 | 0.00 | 0.00 | 10 | 1002.6 |
| 20260507092949 | 43 | 350 | 3.0 | 13.0 | 0.00 | 0.00 | 0.00 | 10 | 1002.6 |
| 20260507092703 | 42 | 341 | 6.0 | 13.0 | 0.00 | 0.00 | 0.00 | 10 | 1002.5 |
| 20260507092448 | 42 | 348 | 8.0 | 13.0 | 0.00 | 0.00 | 0.00 | 10 | 1002.4 |
| 20260507091948 | 42 | 1 | 5.0 | 13.0 | 0.00 | 0.00 | 0.00 | 10 | 1002.4 |
| 20260507091803 | 42 | 5 | 6.0 | 13.0 | 0.00 | 0.00 | 0.00 | 10 | 1002.3 |
| 20260507091634 | 42 | 5 | 4.0 | 13.0 | 0.00 | 0.00 | 0.00 | 10 | 1002.2 |
| 20260507091448 | 42 | 354 | 4.0 | 13.0 | 0.00 | 0.00 | 0.00 | 10 | 1002.2 |
| 20260507090948 | 42 | 325 | 4.0 | 11.0 | 0.00 | 0.00 | 0.00 | 10 | 1002.0 |
| 20260507090903 | 42 | 325 | 4.0 | 11.0 | 0.00 | 0.00 | 0.00 | 10 | 1002.0 |
| 20260507090448 | 41 | 344 | 6.0 | 11.0 | 0.00 | 0.00 | 0.00 | 10 | 1002.1 |
| 20260507090003 | 41 | 338 | 8.0 | 11.0 | 0.00 | 0.00 | 0.00 | 10 | 1002.1 |
| 20260507085948 | 41 | 341 | 6.0 | 12.0 | 0.00 | 0.00 | 0.00 | 10 | 1001.9 |
| 20260507085634 | 41 | 331 | 4.0 | 12.0 | 0.00 | 0.00 | 0.00 | 10 | 1001.9 |
| 20260507085448 | 41 | 314 | 7.0 | 12.0 | 0.00 | 0.00 | 0.00 | 10 | 1001.8 |
| 20260507085403 | 41 | 314 | 7.0 | 12.0 | 0.00 | 0.00 | 0.00 | 10 | 1001.8 |
| 20260507084948 | 40 | 324 | 9.0 | 11.0 | 0.00 | 0.00 | 0.00 | 10 | 1001.7 |
| 20260507084503 | 40 | 314 | 5.0 | 11.0 | 0.00 | 0.00 | 0.00 | 10 | 1001.6 |
| 20260507084448 | 40 | 320 | 4.0 | 11.0 | 0.00 | 0.00 | 0.00 | 10 | 1001.6 |
| 20260507083948 | 40 | 322 | 4.0 | 11.0 | 0.00 | 0.00 | 0.00 | 10 | 1001.5 |
| 20260507083634 | 40 | 339 | 4.0 | 11.0 | 0.00 | 0.00 | 0.00 | 10 | 1001.4 |
| 20260507083603 | 40 | 340 | 4.0 | 11.0 | 0.00 | 0.00 | 0.00 | 10 | 1001.4 |
| 20260507083448 | 39 | 342 | 5.0 | 11.0 | 0.00 | 0.00 | 0.00 | 10 | 1001.5 |
| 20260507082948 | 39 | 348 | 6.0 | 13.0 | 0.00 | 0.00 | 0.00 | 10 | 1001.5 |
| 20260507082703 | 39 | 355 | 5.0 | 13.0 | 0.00 | 0.00 | 0.00 | 10 | 1001.5 |
| 20260507082348 | 39 | 3 | 5.0 | 13.0 | 0.00 | 0.00 | 0.00 | 10 | 1001.6 |
| 20260507081848 | 39 | 15 | 4.0 | 11.0 | 0.00 | 0.00 | 0.00 | 10 | 1001.6 |
| 20260507081803 | 39 | 15 | 4.0 | 11.0 | 0.00 | 0.00 | 0.00 | 10 | 1001.6 |
| 20260507081634 | 39 | 6 | 7.0 | 11.0 | 0.00 | 0.00 | 0.00 | 10 | 1001.5 |
| 20260507081348 | 39 | 360 | 4.0 | 11.0 | 0.00 | 0.00 | 0.00 | 10 | 1001.5 |
| 20260507080903 | 39 | 355 | 5.0 | 8.0 | 0.00 | 0.00 | 0.00 | 10 | 1001.7 |
| 20260507080847 | 39 | 351 | 5.0 | 8.0 | 0.00 | 0.00 | 0.00 | 10 | 1001.7 |
| 20260507080347 | 38 | 1 | 4.0 | 10.0 | 0.00 | 0.00 | 0.00 | 10 | 1001.7 |
| 20260507080003 | 38 | 353 | 4.0 | 11.0 | 0.00 | 0.00 | 0.00 | 10 | 1001.8 |
| 20260507075847 | 38 | 347 | 4.0 | 11.0 | 0.00 | 0.00 | 0.00 | 10 | 1001.8 |
| 20260507075635 | 38 | 341 | 7.0 | 11.0 | 0.00 | 0.00 | 0.00 | 10 | 1001.9 |
| 20260507075403 | 38 | 330 | 6.0 | 11.0 | 0.00 | 0.00 | 0.00 | 10 | 1002.0 |
| 20260507075347 | 38 | 326 | 7.0 | 11.0 | 0.00 | 0.00 | 0.00 | 10 | 1002.0 |
| 20260507074847 | 38 | 330 | 8.0 | 11.0 | 0.00 | 0.00 | 0.00 | 10 | 1002.1 |
| 20260507074503 | 38 | 344 | 5.0 | 11.0 | 0.00 | 0.00 | 0.00 | 10 | 1002.2 |
| 20260507074347 | 37 | 337 | 4.0 | 14.0 | 0.00 | 0.00 | 0.00 | 10 | 1002.2 |
| 20260507073847 | 37 | 324 | 5.0 | 15.0 | 0.00 | 0.00 | 0.00 | 10 | 1002.3 |
| 20260507073635 | 37 | 329 | 5.0 | 15.0 | 0.00 | 0.00 | 0.00 | 10 | 1002.4 |
| 20260507073603 | 37 | 329 | 5.0 | 15.0 | 0.00 | 0.00 | 0.00 | 10 | 1002.4 |
| 20260507073347 | 37 | 347 | 5.0 | 15.0 | 0.00 | 0.00 | 0.00 | 10 | 1002.3 |
| 20260507072847 | 37 | 347 | 8.0 | 15.0 | 0.00 | 0.00 | 0.00 | 10 | 1002.3 |
| 20260507072703 | 37 | 343 | 5.0 | 12.0 | 0.00 | 0.00 | 0.00 | 10 | 1002.4 |
| 20260507072347 | 36 | 331 | 4.0 | 12.0 | 0.00 | 0.00 | 0.00 | 10 | 1002.5 |
| 20260507071847 | 36 | 342 | 8.0 | 12.0 | 0.00 | 0.00 | 0.00 | 10 | 1002.6 |
| 20260507071803 | 36 | 342 | 8.0 | 12.0 | 0.00 | 0.00 | 0.00 | 10 | 1002.6 |
| 20260507071635 | 37 | 350 | 6.0 | 11.0 | 0.00 | 0.00 | 0.00 | 10 | 1002.7 |
| 20260507071347 | 37 | 358 | 4.0 | 11.0 | 0.00 | 0.00 | 0.00 | 10 | 1002.8 |
| 20260507070903 | 36 | 355 | 4.0 | 11.0 | 0.00 | 0.00 | 0.00 | 10 | 1002.9 |
| 20260507070847 | 36 | 359 | 4.0 | 11.0 | 0.00 | 0.00 | 0.00 | 10 | 1002.6 |
| 20260507070347 | 36 | 2 | 6.0 | 11.0 | 0.00 | 0.00 | 0.00 | 10 | 1002.7 |
| 20260507070006 | 36 | 338 | 6.0 | 11.0 | 0.00 | 0.00 | 0.00 | 10 | 1002.8 |
| 20260507065847 | 35 | 326 | 2.0 | 8.0 | 0.00 | 0.00 | 0.00 | 10 | 1002.8 |
| 20260507065635 | 35 | 319 | 4.0 | 8.0 | 0.00 | 0.00 | 0.00 | 10 | 1002.7 |
| 20260507065403 | 35 | 324 | 2.0 | 8.0 | 0.00 | 0.00 | 0.00 | 10 | 1002.7 |
| 20260507065347 | 35 | 322 | 4.0 | 8.0 | 0.00 | 0.00 | 0.00 | 10 | 1002.7 |
| 20260507064735 | 35 | 330 | 4.0 | 8.0 | 0.00 | 0.00 | 0.00 | 10 | 1002.8 |
| 20260507064503 | 34 | 333 | 3.0 | 8.0 | 0.00 | 0.00 | 0.00 | 10 | 1002.7 |
| 20260507064235 | 34 | 336 | 2.0 | 8.0 | 0.00 | 0.00 | 0.00 | 10 | 1002.7 |
| 20260507063735 | 34 | 334 | 2.0 | 7.0 | 0.00 | 0.00 | 0.00 | 10 | 1002.6 |
| 20260507063635 | 34 | 337 | 2.0 | 7.0 | 0.00 | 0.00 | 0.00 | 10 | 1002.6 |
| 20260507063603 | 34 | 337 | 2.0 | 7.0 | 0.00 | 0.00 | 0.00 | 10 | 1002.6 |
| 20260507063235 | 34 | 340 | 2.0 | 8.0 | 0.00 | 0.00 | 0.00 | 10 | 1002.7 |
| 20260507062734 | 34 | 335 | 2.0 | 9.0 | 0.00 | 0.00 | 0.00 | 10 | 1002.6 |
| 20260507062704 | 34 | 335 | 2.0 | 9.0 | 0.00 | 0.00 | 0.00 | 10 | 1002.6 |
| 20260507062234 | 33 | 318 | 2.0 | 9.0 | 0.00 | 0.00 | 0.00 | 10 | 1002.6 |
| 20260507061803 | 33 | 341 | 3.0 | 9.0 | 0.00 | 0.00 | 0.00 | 10 | 1002.6 |
| 20260507061734 | 33 | 349 | 4.0 | 9.0 | 0.00 | 0.00 | 0.00 | 10 | 1002.7 |
| 20260507061634 | 33 | 355 | 3.0 | 8.0 | 0.00 | 0.00 | 0.00 | 11 | 1002.6 |
| 20260507061234 | 33 | 12 | 5.0 | 8.0 | 0.00 | 0.00 | 0.00 | 13 | 1002.8 |
| 20260507060903 | 33 | 15 | 4.0 | 8.0 | 0.00 | 0.00 | 0.00 | 16 | 1002.6 |
| 20260507060734 | 32 | 354 | 2.0 | 5.0 | 0.00 | 0.00 | 0.00 | 24 | 1002.8 |
| 20260507060234 | 32 | 357 | 2.0 | 5.0 | 0.00 | 0.00 | 0.00 | 24 | 1002.5 |
| 20260507060003 | 32 | 3 | 2.0 | 5.0 | 0.00 | 0.00 | 0.00 | 24 | 1002.5 |
| 20260507055734 | 32 | 22 | 3.0 | 5.0 | 0.00 | 0.00 | 0.00 | 26 | 1002.6 |
| 20260507055634 | 32 | 33 | 3.0 | 5.0 | 0.00 | 0.00 | 0.00 | 27 | 1002.6 |
| 20260507055403 | 32 | 32 | 2.0 | 5.0 | 0.00 | 0.00 | 0.00 | 29 | 1002.5 |
| 20260507055234 | 32 | 29 | 2.0 | 4.0 | 0.00 | 0.00 | 0.00 | 30 | 1002.5 |
| 20260507054734 | 31 | 351 | 2.0 | 4.0 | 0.00 | 0.00 | 0.00 | 31 | 1002.5 |
| 20260507054503 | 31 | 277 | 2.0 | 4.0 | 0.00 | 0.00 | 0.00 | 33 | 1002.4 |
| 20260507054234 | 31 | 216 | 0.0 | 4.0 | 0.00 | 0.00 | 0.00 | 34 | 1002.5 |